FREGAT DEB, 47330

Orbit data source: Space-Track

FREGAT DEB, 47330 is space debris in LEO originally from a launch on Mon, 18 Jul 2011 UTC launched from the Tyuratam Missile And Space Complex (TTMTR). Debris objects in space refer to the collection of defunct objects orbiting the Earth. Examples of debris include non-operational satellites, rocket bodies, and fragments generated from explosions, collisions, or faulty payload assembly.

Loading next visibility...
Identifier
47330, 2011-037NM
Orbit
LEO
Country
Flag of CISCIS
Related business
Manufacturer
Lavochkin
Mission
Spacecraft
Bus & Motor
Unknown
Mass
Unknown
Launch date (UTC)
2011-07-18 (14 years ago)
Launch vehicle
Unknown
Launch site
Tyuratam Missile And Space Complex (TTMTR)
Object type
Payload
Rocket body
Debris
Shape & HBR
Unknown shape, 0.1 m
Radar Cross Section
Small (<0.1 m²)

Expand to show TLE details & history
Last TLE update: 12 hours ago

TLE from 12 hours ago
0 FREGAT DEB
1 47330U 11037NM  25297.44051726  .00119517  00000-0  16978-1 0  9999
2 47330  51.3972 354.8322 1009182 185.5513 173.3445 13.16861663207032
Epoch: 2025-10-24T10:34Z
TLE epoch observation values (Epoch: 2025-10-24T10:34:20.691Z)
Latitude
-0.00004°
Longitude
163.16057°
Altitude
1,957.535 km
Speed
6.561 km/s
True Right ascension
23h 39m 19s
True Declination
0° 00' 00"
Sunlit
Object was in full shadow at epoch
Visualization orbit readout
Latitude
Unknown
Longitude
Unknown
Altitude
Unknown
Speed
Unknown
Apparent Right ascension
Unknown
Apparent Declination
Unknown
Sunlit
N/A
Visualization observer readout
Local Sidereal Time
17:20:39
Azimuth
Unknown
Elevation
Unknown
Doppler factor
Unknown
Orbital elements
Apogee altitude
1,961.724 km
Perigee altitude
432.739 km
Semi-major axis
7,575.368 km
Eccentricity
0.10092
Inclination
51.3972°
RAAN
354.8322°
Arg. of periapsis
185.5513°
True anomaly
174.53493°
Mean anomaly
173.3445°
Eccentric anomaly
173.95356°
Mean motion
3.29183 °/min
Orbital period
109.36 mins
BSTAR
0.016978
Loading maneuver chart data...
Computing Atmospheric mass density...
Loading historical data...
Loading historical data...
Loading historical data...
Loading historical data...
Loading historical data...
Loading historical data...
Loading historical data...

Documentation

Showing up to 5 results
|